| time (UTC) | temp F | wind direction | speed knots | gust knots | rain 1hr in | rain 24hr in | rain mn in | humidity % | barometer mb |
| 20260509055529 | 37 | 16 | 0.9 | 2.6 | 0.00 | 0.00 | 0.00 | 51 | 977.8 |
| 20260509055027 | 37 | 16 | 0.9 | 2.6 | 0.00 | 0.00 | 0.00 | 50 | 977.7 |
| 20260509054521 | 38 | 16 | 0.0 | 3.5 | 0.00 | 0.00 | 0.00 | 49 | 977.5 |
| 20260509054020 | 38 | 16 | 0.0 | 3.5 | 0.00 | 0.00 | 0.00 | 49 | 977.7 |
| 20260509053519 | 38 | 33 | 0.0 | 0.0 | 0.00 | 0.00 | 0.00 | 49 | 977.5 |
| 20260509053018 | 39 | 33 | 0.0 | 1.7 | 0.00 | 0.00 | 0.00 | 49 | 977.4 |
| 20260509052516 | 39 | 33 | 0.0 | 1.7 | 0.00 | 0.00 | 0.00 | 48 | 977.4 |
| 20260509052014 | 40 | 33 | 0.0 | 0.9 | 0.00 | 0.00 | 0.00 | 47 | 977.3 |
| 20260509051513 | 41 | 33 | 0.0 | 1.7 | 0.00 | 0.00 | 0.00 | 46 | 977.3 |
| 20260509051012 | 41 | 33 | 0.0 | 1.7 | 0.00 | 0.00 | 0.00 | 45 | 977.3 |
| 20260509050511 | 42 | 33 | 0.9 | 1.7 | 0.00 | 0.00 | 0.00 | 44 | 977.3 |
| 20260509050026 | 42 | 33 | 0.0 | 1.7 | 0.00 | 0.00 | 0.00 | 43 | 977.2 |
| 20260509045509 | 43 | 33 | 0.0 | 3.5 | 0.00 | 0.00 | 0.00 | 43 | 977.1 |
| 20260509045008 | 43 | 34 | 0.9 | 3.5 | 0.00 | 0.00 | 0.00 | 43 | 977.2 |
| 20260509044509 | 43 | 34 | 0.9 | 5.2 | 0.00 | 0.00 | 0.00 | 42 | 977.2 |
| 20260509044007 | 43 | 45 | 2.6 | 5.2 | 0.00 | 0.00 | 0.00 | 43 | 977.1 |
| 20260509043507 | 43 | 18 | 1.7 | 5.2 | 0.00 | 0.00 | 0.00 | 42 | 977.1 |
| 20260509043009 | 43 | 26 | 2.6 | 5.2 | 0.00 | 0.00 | 0.00 | 42 | 977.1 |
| 20260509042508 | 43 | 34 | 1.7 | 4.3 | 0.00 | 0.00 | 0.00 | 43 | 977.0 |
| 20260509042011 | 43 | 11 | 0.9 | 5.2 | 0.00 | 0.00 | 0.00 | 43 | 977.0 |
| 20260509041508 | 43 | 48 | 1.7 | 8.7 | 0.00 | 0.00 | 0.00 | 42 | 976.9 |
| 20260509041008 | 43 | 63 | 2.6 | 8.7 | 0.00 | 0.00 | 0.00 | 42 | 977.0 |
| 20260509040507 | 43 | 310 | 6.1 | 9.6 | 0.00 | 0.00 | 0.00 | 42 | 976.7 |
| 20260509040007 | 43 | 323 | 6.1 | 11.3 | 0.00 | 0.00 | 0.00 | 41 | 976.6 |
| 20260509035510 | 44 | 311 | 6.1 | 11.3 | 0.00 | 0.00 | 0.00 | 41 | 976.5 |
| 20260509035007 | 44 | 341 | 5.2 | 11.3 | 0.00 | 0.00 | 0.00 | 40 | 976.4 |
| 20260509034506 | 44 | 338 | 7.0 | 11.3 | 0.00 | 0.00 | 0.00 | 39 | 976.3 |
| 20260509034006 | 44 | 333 | 6.1 | 10.4 | 0.00 | 0.00 | 0.00 | 38 | 976.3 |
| 20260509033506 | 44 | 308 | 6.1 | 10.4 | 0.00 | 0.00 | 0.00 | 38 | 976.2 |
| 20260509033006 | 44 | 332 | 5.2 | 10.4 | 0.00 | 0.00 | 0.00 | 37 | 976.2 |
| 20260509032508 | 44 | 299 | 6.1 | 10.4 | 0.00 | 0.00 | 0.00 | 36 | 976.0 |
| 20260509032008 | 44 | 309 | 6.1 | 9.6 | 0.00 | 0.00 | 0.00 | 36 | 976.2 |
| 20260509031510 | 45 | 307 | 5.2 | 9.6 | 0.00 | 0.00 | 0.00 | 35 | 976.1 |
| 20260509031006 | 45 | 309 | 5.2 | 9.6 | 0.00 | 0.00 | 0.00 | 34 | 976.0 |
| 20260509030506 | 45 | 347 | 4.3 | 8.7 | 0.00 | 0.00 | 0.00 | 34 | 976.0 |
| 20260509030006 | 46 | 326 | 5.2 | 8.7 | 0.00 | 0.00 | 0.00 | 33 | 975.9 |
| 20260509025505 | 46 | 304 | 4.3 | 10.4 | 0.00 | 0.00 | 0.00 | 34 | 975.8 |
| 20260509025004 | 46 | 340 | 5.2 | 12.2 | 0.00 | 0.00 | 0.00 | 33 | 975.8 |
| 20260509024504 | 46 | 302 | 6.1 | 12.2 | 0.00 | 0.00 | 0.00 | 32 | 975.7 |
| 20260509024009 | 46 | 306 | 6.1 | 10.4 | 0.00 | 0.00 | 0.00 | 32 | 975.7 |
| 20260509023506 | 46 | 302 | 6.1 | 10.4 | 0.00 | 0.00 | 0.00 | 31 | 975.6 |
| 20260509023007 | 46 | 295 | 6.1 | 11.3 | 0.00 | 0.00 | 0.00 | 31 | 975.5 |
| 20260509022508 | 47 | 340 | 7.0 | 11.3 | 0.00 | 0.00 | 0.00 | 30 | 975.4 |
| 20260509022004 | 47 | 315 | 7.0 | 11.3 | 0.00 | 0.00 | 0.00 | 30 | 975.3 |
| 20260509021504 | 47 | 296 | 7.8 | 13.9 | 0.00 | 0.00 | 0.00 | 29 | 975.2 |
| 20260509021003 | 47 | 314 | 7.8 | 13.9 | 0.00 | 0.00 | 0.00 | 29 | 975.2 |
| 20260509020503 | 47 | 350 | 7.0 | 11.3 | 0.00 | 0.00 | 0.00 | 28 | 975.2 |
| 20260509020004 | 48 | 343 | 5.2 | 11.3 | 0.00 | 0.00 | 0.00 | 28 | 975.2 |
| 20260509015504 | 48 | 322 | 5.2 | 11.3 | 0.00 | 0.00 | 0.00 | 28 | 975.1 |
| 20260509015003 | 48 | 327 | 7.0 | 13.0 | 0.00 | 0.00 | 0.00 | 28 | 975.0 |
| 20260509014502 | 48 | 341 | 6.1 | 14.8 | 0.00 | 0.00 | 0.00 | 26 | 975.0 |
| 20260509014002 | 48 | 321 | 8.7 | 16.5 | 0.00 | 0.00 | 0.00 | 25 | 975.0 |
| 20260509013503 | 48 | 338 | 7.8 | 16.5 | 0.00 | 0.00 | 0.00 | 25 | 975.1 |
| 20260509013003 | 48 | 335 | 7.8 | 14.8 | 0.00 | 0.00 | 0.00 | 25 | 975.1 |
| 20260509012502 | 48 | 331 | 7.8 | 14.8 | 0.00 | 0.00 | 0.00 | 25 | 975.1 |
| 20260509012002 | 49 | 360 | 6.1 | 13.9 | 0.00 | 0.00 | 0.00 | 25 | 975.1 |
| 20260509011503 | 49 | 346 | 9.6 | 13.9 | 0.00 | 0.00 | 0.00 | 24 | 975.1 |
| 20260509011002 | 49 | 346 | 7.0 | 13.0 | 0.00 | 0.00 | 0.00 | 25 | 975.1 |
| 20260509010502 | 50 | 23 | 9.6 | 14.8 | 0.00 | 0.00 | 0.00 | 23 | 975.0 |
| 20260509010007 | 50 | 5 | 7.0 | 16.5 | 0.00 | 0.00 | 0.00 | 25 | 975.1 |
| 20260509005502 | 50 | 309 | 8.7 | 16.5 | 0.00 | 0.00 | 0.00 | 24 | 975.0 |
| 20260509005001 | 51 | 344 | 10.4 | 16.5 | 0.00 | 0.00 | 0.00 | 24 | 975.0 |
| 20260509004602 | 50 | 335 | 9.6 | 16.5 | 0.00 | 0.00 | 0.00 | 26 | 974.9 |
| 20260509004100 | 50 | 355 | 9.6 | 18.2 | 0.00 | 0.00 | 0.00 | 27 | 974.8 |
| 20260509003600 | 50 | 345 | 12.2 | 18.2 | 0.00 | 0.00 | 0.00 | 26 | 974.7 |
| 20260509003100 | 51 | 344 | 11.3 | 17.4 | 0.00 | 0.00 | 0.00 | 27 | 974.6 |
| 20260509002602 | 51 | 325 | 9.6 | 16.5 | 0.00 | 0.00 | 0.00 | 27 | 974.6 |
| 20260509002100 | 51 | 348 | 7.0 | 15.6 | 0.00 | 0.00 | 0.00 | 27 | 974.5 |
| 20260509001600 | 51 | 340 | 10.4 | 15.6 | 0.00 | 0.00 | 0.00 | 26 | 974.5 |
| 20260509001059 | 51 | 355 | 8.7 | 14.8 | 0.00 | 0.00 | 0.00 | 26 | 974.4 |
| 20260509000559 | 52 | 338 | 7.8 | 13.0 | 0.00 | 0.00 | 0.00 | 26 | 974.4 |
| 20260509000109 | 52 | 315 | 8.7 | 13.9 | 0.00 | 0.00 | 0.00 | 26 | 974.4 |
| 20260508235559 | 52 | 349 | 8.7 | 17.4 | 0.00 | 0.00 | 0.00 | 25 | 974.4 |
| 20260508235103 | 52 | 329 | 9.6 | 17.4 | 0.00 | 0.00 | 0.00 | 26 | 974.2 |
| 20260508234609 | 52 | 304 | 6.1 | 13.9 | 0.00 | 0.00 | 0.00 | 26 | 974.1 |
| 20260508234100 | 52 | 5 | 6.1 | 14.8 | 0.00 | 0.00 | 0.00 | 25 | 974.0 |
| 20260508233559 | 52 | 344 | 9.6 | 14.8 | 0.00 | 0.00 | 0.00 | 24 | 974.3 |
| 20260508233101 | 53 | 334 | 9.6 | 15.6 | 0.00 | 0.00 | 0.00 | 24 | 974.3 |
| 20260508232558 | 53 | 305 | 7.8 | 14.8 | 0.00 | 0.00 | 0.00 | 23 | 974.4 |
| 20260508232058 | 53 | 355 | 7.8 | 14.8 | 0.00 | 0.00 | 0.00 | 24 | 974.2 |
| 20260508231558 | 53 | 319 | 5.2 | 14.8 | 0.00 | 0.00 | 0.00 | 24 | 974.3 |
| 20260508231058 | 54 | 336 | 7.8 | 14.8 | 0.00 | 0.00 | 0.00 | 24 | 974.2 |
| 20260508230559 | 54 | 360 | 4.3 | 13.9 | 0.00 | 0.00 | 0.00 | 23 | 974.1 |
| 20260508230104 | 54 | 51 | 7.8 | 13.9 | 0.00 | 0.00 | 0.00 | 22 | 974.1 |
| 20260508225558 | 55 | 355 | 7.0 | 13.0 | 0.00 | 0.00 | 0.00 | 22 | 974.1 |
| 20260508225057 | 55 | 13 | 4.3 | 11.3 | 0.00 | 0.00 | 0.00 | 21 | 974.1 |
| 20260508224558 | 55 | 19 | 6.1 | 12.2 | 0.00 | 0.00 | 0.00 | 21 | 974.3 |
| 20260508224058 | 55 | 28 | 3.5 | 12.2 | 0.00 | 0.00 | 0.00 | 24 | 974.3 |
| 20260508223557 | 55 | 324 | 6.1 | 13.9 | 0.00 | 0.00 | 0.00 | 24 | 974.4 |
| 20260508223057 | 55 | 335 | 8.7 | 13.9 | 0.00 | 0.00 | 0.00 | 24 | 974.4 |
| 20260508222557 | 55 | 350 | 7.0 | 13.0 | 0.00 | 0.00 | 0.00 | 24 | 974.4 |
| 20260508222057 | 55 | 43 | 6.1 | 13.0 | 0.00 | 0.00 | 0.00 | 23 | 974.3 |
| 20260508221600 | 55 | 11 | 3.5 | 13.0 | 0.00 | 0.00 | 0.00 | 26 | 974.3 |
| 20260508221056 | 55 | 338 | 4.3 | 13.9 | 0.00 | 0.00 | 0.00 | 26 | 974.5 |
| 20260508220559 | 55 | 5 | 6.1 | 14.8 | 0.00 | 0.00 | 0.00 | 24 | 974.4 |
| 20260508220057 | 56 | 347 | 7.8 | 14.8 | 0.00 | 0.00 | 0.00 | 24 | 974.4 |
| 20260508215556 | 56 | 305 | 7.8 | 12.2 | 0.00 | 0.00 | 0.00 | 24 | 974.4 |
| 20260508215056 | 55 | 355 | 6.1 | 14.8 | 0.00 | 0.00 | 0.00 | 25 | 974.4 |
| 20260508214609 | 55 | 323 | 9.6 | 15.6 | 0.00 | 0.00 | 0.00 | 24 | 974.6 |
| 20260508214059 | 56 | 341 | 8.7 | 15.6 | 0.00 | 0.00 | 0.00 | 24 | 974.5 |
| 20260508213555 | 56 | 355 | 7.0 | 10.4 | 0.00 | 0.00 | 0.00 | 23 | 974.5 |
| 20260508213111 | 56 | 344 | 6.1 | 12.2 | 0.00 | 0.00 | 0.00 | 24 | 974.5 |
| 20260508212558 | 56 | 350 | 4.3 | 13.0 | 0.00 | 0.00 | 0.00 | 24 | 974.5 |
| 20260508212056 | 56 | 349 | 6.1 | 13.0 | 0.00 | 0.00 | 0.00 | 24 | 974.6 |
| 20260508211558 | 56 | 344 | 7.8 | 12.2 | 0.00 | 0.00 | 0.00 | 23 | 974.7 |
| 20260508211054 | 56 | 348 | 6.1 | 13.9 | 0.00 | 0.00 | 0.00 | 24 | 974.7 |
| 20260508210557 | 56 | 21 | 7.8 | 13.9 | 0.00 | 0.00 | 0.00 | 24 | 974.8 |
| 20260508210054 | 56 | 11 | 7.0 | 12.2 | 0.00 | 0.00 | 0.00 | 24 | 974.7 |
| 20260508205553 | 56 | 5 | 7.0 | 12.2 | 0.00 | 0.00 | 0.00 | 25 | 974.7 |
| 20260508205053 | 55 | 304 | 7.0 | 13.9 | 0.00 | 0.00 | 0.00 | 24 | 974.8 |
| 20260508204604 | 56 | 332 | 5.2 | 13.9 | 0.00 | 0.00 | 0.00 | 26 | 974.7 |
| 20260508204054 | 55 | 321 | 7.8 | 13.9 | 0.00 | 0.00 | 0.00 | 23 | 974.7 |
| 20260508203553 | 56 | 311 | 7.8 | 13.9 | 0.00 | 0.00 | 0.00 | 24 | 974.9 |
| 20260508203057 | 55 | 27 | 6.1 | 14.8 | 0.00 | 0.00 | 0.00 | 24 | 974.9 |
| 20260508202553 | 55 | 18 | 5.2 | 14.8 | 0.00 | 0.00 | 0.00 | 24 | 974.8 |
| 20260508202051 | 55 | 340 | 6.1 | 14.8 | 0.00 | 0.00 | 0.00 | 24 | 974.9 |
| 20260508201607 | 56 | 308 | 10.4 | 14.8 | 0.00 | 0.00 | 0.00 | 24 | 974.9 |
| 20260508201053 | 55 | 5 | 7.8 | 13.9 | 0.00 | 0.00 | 0.00 | 24 | 974.8 |
| 20260508200552 | 55 | 297 | 7.0 | 13.9 | 0.00 | 0.00 | 0.00 | 25 | 974.9 |
| 20260508200104 | 55 | 27 | 6.1 | 13.0 | 0.00 | 0.00 | 0.00 | 24 | 974.9 |
| 20260508195550 | 55 | 340 | 7.8 | 13.0 | 0.00 | 0.00 | 0.00 | 25 | 974.9 |
| 20260508195050 | 55 | 311 | 7.0 | 11.3 | 0.00 | 0.00 | 0.00 | 25 | 974.9 |
| 20260508194551 | 55 | 360 | 6.1 | 13.0 | 0.00 | 0.00 | 0.00 | 25 | 975.0 |
| 20260508194049 | 55 | 300 | 4.3 | 14.8 | 0.00 | 0.00 | 0.00 | 24 | 975.0 |
| 20260508193549 | 55 | 343 | 8.7 | 14.8 | 0.00 | 0.00 | 0.00 | 25 | 974.9 |
| 20260508193055 | 55 | 49 | 7.0 | 14.8 | 0.00 | 0.00 | 0.00 | 24 | 975.1 |
| 20260508192549 | 55 | 344 | 3.5 | 14.8 | 0.00 | 0.00 | 0.00 | 26 | 975.4 |
| 20260508192049 | 55 | 346 | 10.4 | 14.8 | 0.00 | 0.00 | 0.00 | 25 | 975.2 |
| 20260508191550 | 55 | 273 | 7.0 | 13.9 | 0.00 | 0.00 | 0.00 | 26 | 975.3 |
| 20260508191048 | 55 | 360 | 5.2 | 13.9 | 0.00 | 0.00 | 0.00 | 26 | 975.3 |
| 20260508190549 | 55 | 320 | 6.1 | 13.9 | 0.00 | 0.00 | 0.00 | 26 | 975.4 |
| 20260508190052 | 54 | 328 | 7.8 | 15.6 | 0.00 | 0.00 | 0.00 | 25 | 975.6 |
| 20260508185547 | 54 | 17 | 6.1 | 15.6 | 0.00 | 0.00 | 0.00 | 25 | 975.7 |
| 20260508185045 | 54 | 290 | 5.2 | 11.3 | 0.00 | 0.00 | 0.00 | 26 | 975.4 |
| 20260508184547 | 54 | 340 | 3.5 | 14.8 | 0.00 | 0.00 | 0.00 | 26 | 975.6 |
| 20260508184047 | 54 | 306 | 7.8 | 13.9 | 0.00 | 0.00 | 0.00 | 25 | 975.5 |
| 20260508183544 | 54 | 15 | 5.2 | 14.8 | 0.00 | 0.00 | 0.00 | 25 | 975.5 |
| 20260508183044 | 54 | 350 | 7.0 | 13.9 | 0.00 | 0.00 | 0.00 | 26 | 975.6 |
| 20260508182544 | 53 | 5 | 5.2 | 13.9 | 0.00 | 0.00 | 0.00 | 25 | 975.6 |
| 20260508182044 | 54 | 330 | 9.6 | 13.9 | 0.00 | 0.00 | 0.00 | 25 | 975.8 |
| 20260508181606 | 53 | 331 | 5.2 | 13.9 | 0.00 | 0.00 | 0.00 | 26 | 975.7 |
| 20260508181043 | 54 | 349 | 9.6 | 13.9 | 0.00 | 0.00 | 0.00 | 25 | 975.8 |
| 20260508180543 | 53 | 17 | 7.8 | 13.0 | 0.00 | 0.00 | 0.00 | 25 | 975.8 |
| 20260508180057 | 53 | 298 | 9.6 | 13.0 | 0.00 | 0.00 | 0.00 | 24 | 975.9 |
| 20260508175543 | 53 | 19 | 7.0 | 13.9 | 0.00 | 0.00 | 0.00 | 25 | 976.0 |
| 20260508175042 | 53 | 350 | 6.1 | 14.8 | 0.00 | 0.00 | 0.00 | 25 | 975.9 |
| 20260508174541 | 53 | 332 | 7.8 | 15.6 | 0.00 | 0.00 | 0.00 | 25 | 976.0 |
| 20260508174039 | 53 | 346 | 8.7 | 15.6 | 0.00 | 0.00 | 0.00 | 25 | 976.1 |
| 20260508173539 | 52 | 9 | 7.8 | 15.6 | 0.00 | 0.00 | 0.00 | 25 | 976.2 |
| 20260508173045 | 52 | 344 | 8.7 | 15.6 | 0.00 | 0.00 | 0.00 | 25 | 976.1 |
| 20260508172537 | 53 | 325 | 9.6 | 14.8 | 0.00 | 0.00 | 0.00 | 24 | 976.1 |
| 20260508172037 | 52 | 295 | 9.6 | 16.5 | 0.00 | 0.00 | 0.00 | 23 | 976.1 |
| 20260508171538 | 52 | 297 | 7.8 | 16.5 | 0.00 | 0.00 | 0.00 | 25 | 976.1 |
| 20260508171034 | 53 | 342 | 7.0 | 13.9 | 0.00 | 0.00 | 0.00 | 25 | 976.2 |
| 20260508170533 | 52 | 12 | 7.0 | 14.8 | 0.00 | 0.00 | 0.00 | 25 | 976.4 |
| 20260508170032 | 52 | 360 | 8.7 | 18.2 | 0.00 | 0.00 | 0.00 | 25 | 976.4 |
| 20260508165531 | 52 | 346 | 9.6 | 18.2 | 0.00 | 0.00 | 0.00 | 25 | 976.4 |
| 20260508165033 | 52 | 355 | 8.7 | 13.0 | 0.00 | 0.00 | 0.00 | 26 | 976.3 |
| 20260508164537 | 52 | 328 | 8.7 | 13.9 | 0.00 | 0.00 | 0.00 | 25 | 976.2 |
| 20260508164027 | 52 | 319 | 9.6 | 13.9 | 0.00 | 0.00 | 0.00 | 25 | 976.2 |
| 20260508163525 | 52 | 318 | 7.0 | 14.8 | 0.00 | 0.00 | 0.00 | 26 | 976.2 |
| 20260508163024 | 52 | 333 | 7.8 | 14.8 | 0.00 | 0.00 | 0.00 | 25 | 976.1 |
| 20260508162523 | 51 | 300 | 9.6 | 14.8 | 0.00 | 0.00 | 0.00 | 27 | 976.1 |
| 20260508162024 | 52 | 313 | 9.6 | 14.8 | 0.00 | 0.00 | 0.00 | 25 | 976.1 |
| 20260508161520 | 52 | 328 | 7.8 | 13.0 | 0.00 | 0.00 | 0.00 | 28 | 976.2 |
| 20260508161019 | 51 | 355 | 7.8 | 13.0 | 0.00 | 0.00 | 0.00 | 27 | 976.3 |
| 20260508160518 | 51 | 294 | 8.7 | 13.0 | 0.00 | 0.00 | 0.00 | 27 | 976.4 |
| 20260508160032 | 51 | 5 | 8.7 | 13.0 | 0.00 | 0.00 | 0.00 | 27 | 976.3 |
| 20260508155515 | 51 | 331 | 7.8 | 12.2 | 0.00 | 0.00 | 0.00 | 29 | 976.3 |
| 20260508155014 | 50 | 355 | 7.8 | 13.9 | 0.00 | 0.00 | 0.00 | 30 | 976.3 |
| 20260508154513 | 50 | 306 | 9.6 | 13.0 | 0.00 | 0.00 | 0.00 | 31 | 976.3 |
| 20260508154015 | 50 | 331 | 4.3 | 11.3 | 0.00 | 0.00 | 0.00 | 31 | 976.2 |
| 20260508153510 | 50 | 360 | 5.2 | 13.9 | 0.00 | 0.00 | 0.00 | 33 | 976.1 |
| 20260508153009 | 50 | 344 | 9.6 | 13.9 | 0.00 | 0.00 | 0.00 | 31 | 976.1 |
| 20260508152507 | 50 | 314 | 6.1 | 13.0 | 0.00 | 0.00 | 0.00 | 33 | 976.0 |
| 20260508152006 | 49 | 326 | 8.7 | 13.9 | 0.00 | 0.00 | 0.00 | 37 | 976.4 |
| 20260508151507 | 49 | 296 | 8.7 | 13.9 | 0.00 | 0.00 | 0.00 | 41 | 976.4 |
| 20260508151006 | 49 | 312 | 7.8 | 13.0 | 0.00 | 0.00 | 0.00 | 39 | 976.3 |
| 20260508150508 | 49 | 279 | 8.7 | 13.9 | 0.00 | 0.00 | 0.00 | 46 | 976.2 |
| 20260508150005 | 49 | 291 | 9.6 | 13.0 | 0.00 | 0.00 | 0.00 | 45 | 976.3 |
| 20260508145507 | 49 | 269 | 7.0 | 13.0 | 0.00 | 0.00 | 0.00 | 46 | 976.2 |
| 20260508145002 | 49 | 323 | 8.7 | 15.6 | 0.00 | 0.00 | 0.00 | 46 | 976.1 |
| 20260508144502 | 49 | 331 | 7.0 | 13.9 | 0.00 | 0.00 | 0.00 | 44 | 976.1 |
| 20260508144003 | 49 | 322 | 7.8 | 13.0 | 0.00 | 0.00 | 0.00 | 44 | 976.1 |
| 20260508143502 | 49 | 301 | 7.8 | 13.0 | 0.00 | 0.00 | 0.00 | 41 | 976.1 |
| 20260508143101 | 49 | 298 | 7.8 | 13.0 | 0.00 | 0.00 | 0.00 | 38 | 976.0 |
| 20260508142559 | 49 | 332 | 7.0 | 11.3 | 0.00 | 0.00 | 0.00 | 37 | 976.0 |
| 20260508142059 | 49 | 296 | 6.1 | 12.2 | 0.00 | 0.00 | 0.00 | 38 | 976.0 |
| 20260508141615 | 49 | 21 | 7.8 | 12.2 | 0.00 | 0.00 | 0.00 | 37 | 976.0 |
| 20260508141058 | 49 | 302 | 7.8 | 12.2 | 0.00 | 0.00 | 0.00 | 37 | 975.9 |
| 20260508140600 | 49 | 329 | 3.5 | 9.6 | 0.00 | 0.00 | 0.00 | 38 | 975.9 |
| 20260508140110 | 48 | 351 | 6.1 | 9.6 | 0.00 | 0.00 | 0.00 | 37 | 975.9 |
| 20260508135559 | 48 | 355 | 3.5 | 7.8 | 0.00 | 0.00 | 0.00 | 35 | 975.9 |
| 20260508135053 | 48 | 355 | 2.6 | 8.7 | 0.00 | 0.00 | 0.00 | 36 | 975.9 |
| 20260508134553 | 47 | 345 | 3.5 | 8.7 | 0.00 | 0.00 | 0.00 | 37 | 975.8 |
| 20260508134051 | 47 | 325 | 2.6 | 7.0 | 0.00 | 0.00 | 0.00 | 38 | 975.7 |
| 20260508133552 | 47 | 35 | 3.5 | 7.0 | 0.00 | 0.00 | 0.00 | 38 | 975.7 |
| 20260508133051 | 46 | 37 | 2.6 | 7.0 | 0.00 | 0.00 | 0.00 | 40 | 975.7 |
| 20260508132547 | 46 | 355 | 1.7 | 6.1 | 0.00 | 0.00 | 0.00 | 40 | 975.6 |
| 20260508132046 | 45 | 9 | 0.9 | 6.1 | 0.00 | 0.00 | 0.00 | 42 | 975.6 |
| 20260508131545 | 44 | 22 | 1.7 | 5.2 | 0.00 | 0.00 | 0.00 | 44 | 975.5 |
| 20260508131044 | 43 | 329 | 1.7 | 7.0 | 0.00 | 0.00 | 0.00 | 44 | 975.5 |
| 20260508130545 | 43 | 360 | 3.5 | 7.0 | 0.00 | 0.00 | 0.00 | 44 | 975.4 |
| 20260508130043 | 42 | 333 | 1.7 | 7.8 | 0.00 | 0.00 | 0.00 | 45 | 975.3 |
| 20260508125539 | 42 | 342 | 3.5 | 7.0 | 0.00 | 0.00 | 0.00 | 46 | 975.3 |
| 20260508125037 | 41 | 346 | 4.3 | 7.0 | 0.00 | 0.00 | 0.00 | 47 | 975.2 |
| 20260508124537 | 40 | 339 | 3.5 | 7.0 | 0.00 | 0.00 | 0.00 | 48 | 975.2 |
| 20260508124037 | 40 | 348 | 2.6 | 4.3 | 0.00 | 0.00 | 0.00 | 47 | 975.1 |
| 20260508123540 | 40 | 26 | 0.9 | 5.2 | 0.00 | 0.00 | 0.00 | 46 | 974.8 |
| 20260508123037 | 40 | 38 | 1.7 | 5.2 | 0.00 | 0.00 | 0.00 | 46 | 974.7 |
| 20260508122537 | 40 | 41 | 1.7 | 5.2 | 0.00 | 0.00 | 0.00 | 47 | 974.6 |
| 20260508122038 | 39 | 42 | 1.7 | 5.2 | 0.00 | 0.00 | 0.00 | 48 | 974.6 |
| 20260508121537 | 39 | 5 | 1.7 | 7.0 | 0.00 | 0.00 | 0.00 | 48 | 974.6 |
| 20260508121036 | 39 | 346 | 2.6 | 5.2 | 0.00 | 0.00 | 0.00 | 48 | 974.7 |
| 20260508120536 | 39 | 43 | 2.6 | 7.0 | 0.00 | 0.00 | 0.00 | 48 | 974.5 |
| 20260508120039 | 38 | 5 | 3.5 | 7.0 | 0.00 | 0.00 | 0.00 | 48 | 974.4 |
| 20260508115536 | 38 | 331 | 1.7 | 4.3 | 0.00 | 0.00 | 0.00 | 47 | 974.3 |
| 20260508115034 | 38 | 92 | 0.9 | 3.5 | 0.00 | 0.00 | 0.00 | 49 | 974.0 |
| 20260508114534 | 38 | 92 | 1.7 | 5.2 | 0.00 | 0.00 | 0.00 | 49 | 973.8 |
| 20260508114034 | 38 | 92 | 2.6 | 5.2 | 0.00 | 0.00 | 0.00 | 49 | 973.7 |
| 20260508113534 | 38 | 92 | 1.7 | 3.5 | 0.00 | 0.00 | 0.00 | 49 | 973.8 |
| 20260508113035 | 38 | 66 | 1.7 | 3.5 | 0.00 | 0.00 | 0.00 | 48 | 973.8 |
| 20260508112534 | 38 | 36 | 1.7 | 3.5 | 0.00 | 0.00 | 0.00 | 49 | 973.8 |
| 20260508112034 | 38 | 39 | 0.9 | 3.5 | 0.00 | 0.00 | 0.00 | 49 | 973.9 |
| 20260508111550 | 38 | 57 | 0.9 | 2.6 | 0.00 | 0.00 | 0.00 | 49 | 974.0 |
| 20260508111034 | 38 | 71 | 0.0 | 2.6 | 0.00 | 0.00 | 0.00 | 50 | 973.8 |
| 20260508110536 | 38 | 57 | 0.9 | 3.5 | 0.00 | 0.00 | 0.00 | 50 | 973.9 |
| 20260508110037 | 38 | 45 | 0.9 | 3.5 | 0.00 | 0.00 | 0.00 | 50 | 973.9 |
| 20260508105536 | 38 | 43 | 1.7 | 3.5 | 0.00 | 0.00 | 0.00 | 50 | 973.8 |
| 20260508105033 | 38 | 44 | 1.7 | 5.2 | 0.00 | 0.00 | 0.00 | 50 | 973.9 |
| 20260508104532 | 37 | 46 | 1.7 | 3.5 | 0.00 | 0.00 | 0.00 | 49 | 973.9 |
| 20260508104032 | 37 | 90 | 0.0 | 2.6 | 0.00 | 0.00 | 0.00 | 50 | 973.9 |
| 20260508103532 | 37 | 91 | 0.9 | 2.6 | 0.00 | 0.00 | 0.00 | 50 | 973.9 |
| 20260508103037 | 37 | 91 | 1.7 | 2.6 | 0.00 | 0.00 | 0.00 | 51 | 973.8 |
| 20260508102531 | 37 | 91 | 1.7 | 2.6 | 0.00 | 0.00 | 0.00 | 52 | 974.0 |
| 20260508102031 | 37 | 91 | 0.9 | 2.6 | 0.00 | 0.00 | 0.00 | 50 | 973.9 |
| 20260508101539 | 38 | 91 | 1.7 | 3.5 | 0.00 | 0.00 | 0.00 | 50 | 974.0 |
| 20260508101031 | 38 | 360 | 1.7 | 5.2 | 0.00 | 0.00 | 0.00 | 50 | 974.0 |
| 20260508100530 | 38 | 121 | 1.7 | 5.2 | 0.00 | 0.00 | 0.00 | 50 | 974.0 |
| 20260508100030 | 38 | 111 | 1.7 | 5.2 | 0.00 | 0.00 | 0.00 | 50 | 973.8 |
| 20260508095530 | 38 | 150 | 2.6 | 5.2 | 0.00 | 0.00 | 0.00 | 50 | 973.9 |
| 20260508095029 | 38 | 123 | 2.6 | 5.2 | 0.00 | 0.00 | 0.00 | 50 | 974.0 |
| 20260508094529 | 38 | 123 | 2.6 | 4.3 | 0.00 | 0.00 | 0.00 | 50 | 974.0 |
| 20260508094028 | 38 | 126 | 2.6 | 5.2 | 0.00 | 0.00 | 0.00 | 50 | 974.2 |
| 20260508093528 | 38 | 130 | 2.6 | 3.5 | 0.00 | 0.00 | 0.00 | 50 | 974.2 |
| 20260508093027 | 38 | 121 | 1.7 | 3.5 | 0.00 | 0.00 | 0.00 | 50 | 974.4 |
| 20260508092526 | 38 | 132 | 1.7 | 4.3 | 0.00 | 0.00 | 0.00 | 50 | 974.4 |
| 20260508092026 | 38 | 139 | 0.9 | 6.1 | 0.00 | 0.00 | 0.00 | 50 | 974.5 |
| 20260508091526 | 38 | 140 | 1.7 | 6.1 | 0.00 | 0.00 | 0.00 | 49 | 974.5 |
| 20260508091026 | 38 | 148 | 1.7 | 4.3 | 0.00 | 0.00 | 0.00 | 49 | 974.6 |
| 20260508090526 | 38 | 133 | 1.7 | 5.2 | 0.00 | 0.00 | 0.00 | 50 | 974.5 |
| 20260508090029 | 38 | 125 | 1.7 | 5.2 | 0.00 | 0.00 | 0.00 | 49 | 974.6 |
| 20260508085524 | 38 | 142 | 2.6 | 3.5 | 0.00 | 0.00 | 0.00 | 49 | 974.6 |
| 20260508085023 | 38 | 126 | 1.7 | 3.5 | 0.00 | 0.00 | 0.00 | 49 | 974.7 |
| 20260508084522 | 38 | 132 | 1.7 | 3.5 | 0.00 | 0.00 | 0.00 | 50 | 974.8 |
| 20260508084021 | 38 | 138 | 1.7 | 3.5 | 0.00 | 0.00 | 0.00 | 50 | 974.9 |
| 20260508083522 | 38 | 152 | 1.7 | 2.6 | 0.00 | 0.00 | 0.00 | 51 | 975.0 |
| 20260508083021 | 37 | 107 | 0.9 | 2.6 | 0.00 | 0.00 | 0.00 | 53 | 975.0 |
| 20260508082520 | 37 | 107 | 1.7 | 2.6 | 0.00 | 0.00 | 0.00 | 52 | 975.1 |
| 20260508082019 | 37 | 107 | 0.9 | 2.6 | 0.00 | 0.00 | 0.00 | 52 | 975.2 |
| 20260508081519 | 37 | 107 | 1.7 | 3.5 | 0.00 | 0.00 | 0.00 | 52 | 975.3 |
| 20260508081018 | 37 | 107 | 2.6 | 3.5 | 0.00 | 0.00 | 0.00 | 51 | 975.2 |
| 20260508080518 | 37 | 107 | 2.6 | 3.5 | 0.00 | 0.00 | 0.00 | 51 | 975.3 |
| 20260508080017 | 37 | 133 | 1.7 | 2.6 | 0.00 | 0.00 | 0.00 | 52 | 975.3 |
| 20260508075517 | 37 | 133 | 0.9 | 2.6 | 0.00 | 0.00 | 0.00 | 52 | 975.4 |
| 20260508075015 | 37 | 133 | 0.9 | 1.7 | 0.00 | 0.00 | 0.00 | 52 | 975.6 |
| 20260508074515 | 37 | 133 | 0.9 | 1.7 | 0.00 | 0.00 | 0.00 | 52 | 975.7 |
| 20260508074014 | 37 | 133 | 0.0 | 2.6 | 0.00 | 0.00 | 0.00 | 51 | 975.8 |
| 20260508073514 | 38 | 133 | 0.9 | 2.6 | 0.00 | 0.00 | 0.00 | 50 | 975.8 |
| 20260508073013 | 39 | 133 | 0.9 | 1.7 | 0.00 | 0.00 | 0.00 | 49 | 975.8 |
| 20260508072512 | 39 | 133 | 0.9 | 3.5 | 0.00 | 0.00 | 0.00 | 47 | 975.9 |
| 20260508072012 | 40 | 133 | 1.7 | 3.5 | 0.00 | 0.00 | 0.00 | 45 | 975.9 |
| 20260508071513 | 40 | 142 | 0.9 | 3.5 | 0.00 | 0.00 | 0.00 | 45 | 976.0 |
| 20260508071017 | 40 | 129 | 1.7 | 3.5 | 0.00 | 0.00 | 0.00 | 44 | 976.0 |
| 20260508070541 | 40 | 148 | 1.7 | 4.3 | 0.00 | 0.00 | 0.00 | 45 | 976.0 |
| 20260508070011 | 40 | 156 | 0.0 | 3.5 | 0.00 | 0.00 | 0.00 | 45 | 976.0 |
| 20260508065510 | 40 | 132 | 1.7 | 5.2 | 0.00 | 0.00 | 0.00 | 44 | 976.0 |
| 20260508065009 | 40 | 141 | 2.6 | 5.2 | 0.00 | 0.00 | 0.00 | 45 | 976.1 |
| 20260508064515 | 40 | 144 | 1.7 | 5.2 | 0.00 | 0.00 | 0.00 | 45 | 976.1 |
| 20260508064008 | 40 | 130 | 1.7 | 5.2 | 0.00 | 0.00 | 0.00 | 45 | 976.2 |
| 20260508063507 | 40 | 135 | 1.7 | 3.5 | 0.00 | 0.00 | 0.00 | 45 | 976.3 |
| 20260508063007 | 39 | 128 | 0.9 | 2.6 | 0.00 | 0.00 | 0.00 | 46 | 976.4 |
| 20260508062505 | 39 | 131 | 0.9 | 3.5 | 0.00 | 0.00 | 0.00 | 47 | 976.4 |
| 20260508062005 | 39 | 164 | 1.7 | 3.5 | 0.00 | 0.00 | 0.00 | 47 | 976.4 |
| 20260508061512 | 38 | 126 | 1.7 | 3.5 | 0.00 | 0.00 | 0.00 | 48 | 976.4 |
| 20260508061008 | 38 | 123 | 0.0 | 1.7 | 0.00 | 0.00 | 0.00 | 49 | 976.5 |
| 20260508060504 | 38 | 123 | 0.0 | 1.7 | 0.00 | 0.00 | 0.00 | 49 | 976.6 |
| 20260508060004 | 39 | 123 | 0.9 | 3.5 | 0.00 | 0.00 | 0.00 | 48 | 976.6 |